Lake Eufaula Weather Center

Moon Phase Calendar



Lake Eufaula Water Level
Online Cameras

 


      

Current Conditions in Georgetown
9/20/2021 1:08:21 AM

74°F
Feels Like 76
Clouds
Humidity
97%
Pressure
30"
Wind
6.2 mph (E)
Dew Point
73°F
UV Index
0/10 (Low)
Visibility
6 mi

Hourly Forecast

Date & Time Mon, Sep 20
1:00 AM
Mon, Sep 20
2:00 AM
Mon, Sep 20
3:00 AM
Mon, Sep 20
4:00 AM
Mon, Sep 20
5:00 AM
Mon, Sep 20
6:00 AM
Mon, Sep 20
7:00 AM
Mon, Sep 20
8:00 AM
Mon, Sep 20
9:00 AM
Mon, Sep 20
10:00 AM
Mon, Sep 20
11:00 AM
Mon, Sep 20
12:00 PM
Mon, Sep 20
1:00 PM
Mon, Sep 20
2:00 PM
Mon, Sep 20
3:00 PM
Mon, Sep 20
4:00 PM
Mon, Sep 20
5:00 PM
Mon, Sep 20
6:00 PM
Mon, Sep 20
7:00 PM
Mon, Sep 20
8:00 PM
Mon, Sep 20
9:00 PM
Mon, Sep 20
10:00 PM
Mon, Sep 20
11:00 PM
Tue, Sep 21
12:00 AM
Tue, Sep 21
1:00 AM
Tue, Sep 21
2:00 AM
Tue, Sep 21
3:00 AM
Tue, Sep 21
4:00 AM
Tue, Sep 21
5:00 AM
Tue, Sep 21
6:00 AM
Tue, Sep 21
7:00 AM
Tue, Sep 21
8:00 AM
Tue, Sep 21
9:00 AM
Tue, Sep 21
10:00 AM
Tue, Sep 21
11:00 AM
Tue, Sep 21
12:00 PM
Tue, Sep 21
1:00 PM
Tue, Sep 21
2:00 PM
Tue, Sep 21
3:00 PM
Tue, Sep 21
4:00 PM
Tue, Sep 21
5:00 PM
Tue, Sep 21
6:00 PM
Tue, Sep 21
7:00 PM
Tue, Sep 21
8:00 PM
Tue, Sep 21
9:00 PM
Tue, Sep 21
10:00 PM
Tue, Sep 21
11:00 PM
Wed, Sep 22
12:00 AM
Condition
Clouds

Clouds

Clouds

Rain

Rain

Rain

Rain

Clouds

Clouds

Rain

Rain

Rain

Rain

Rain

Rain

Rain

Rain

Rain

Rain

Rain

Clouds

Clouds

Clouds

Clouds

Clouds

Clouds

Clouds

Clouds

Clouds

Clouds

Clouds

Clouds

Clouds

Clouds

Clouds

Rain

Rain

Rain

Rain

Rain

Rain

Clouds

Rain

Clouds

Clear

Clear

Rain

Rain
Temperature 74°F74°F73°F73°F72°F72°F72°F72°F73°F74°F76°F77°F78°F79°F81°F82°F82°F81°F77°F75°F74°F73°F73°F72°F72°F72°F71°F71°F71°F71°F71°F71°F74°F78°F82°F84°F85°F85°F84°F84°F84°F83°F81°F77°F76°F75°F75°F74°F
Feels Like 76°F75°F75°F74°F74°F73°F73°F74°F75°F76°F77°F79°F80°F79°F85°F87°F87°F86°F79°F77°F76°F75°F74°F74°F73°F73°F73°F73°F72°F72°F72°F73°F76°F79°F87°F90°F92°F92°F91°F91°F90°F89°F86°F79°F77°F77°F76°F75°F
Cloudiness 100%100%100%100%100%100%100%100%100%99%98%96%94%95%88%84%78%72%77%81%99%98%95%77%65%57%24%25%27%27%27%27%22%25%28%32%35%38%44%38%36%35%34%28%2%2%2%4%
Visibility 6 mi6 mi6 mi6 mi6 mi6 mi6 mi6 mi6 mi6 mi6 mi6 mi6 mi6 mi6 mi6 mi6 mi6 mi6 mi6 mi6 mi6 mi6 mi6 mi6 mi6 mi6 mi6 mi6 mi6 mi6 mi6 mi6 mi6 mi6 mi6 mi6 mi6 mi6 mi6 mi6 mi6 mi6 mi6 mi6 mi6 mi6 mi6 mi
Precipitation 85%85%56%56%52%61%57%57%31%24%36%57%60%73%74%74%66%66%64%74%38%30%26%16%12%12%0%0%0%0%0%0%0%0%0%30%53%76%99%99%99%79%99%79%27%33%49%71%
Humidity 97%97%98%98%98%98%98%98%96%93%90%86%84%82%78%75%75%76%88%94%95%96%97%98%98%98%99%99%99%98%98%98%92%84%76%71%67%67%68%68%69%70%79%84%86%88%90%93%
Dew Point 73°F73°F73°F72°F72°F71°F71°F71°F72°F72°F72°F73°F73°F73°F73°F73°F73°F73°F73°F73°F72°F72°F72°F71°F71°F71°F71°F70°F70°F70°F70°F70°F72°F73°F73°F73°F73°F73°F73°F73°F72°F72°F74°F72°F72°F71°F71°F71°F
Pressure 30"30"30"29.97"29.97"29.97"30"30"30.03"30.03"30.03"30.03"30.03"30"29.97"29.97"29.97"29.97"29.97"30"30"30.03"30.03"30.03"30.03"30.03"30.03"30.03"30.03"30.03"30.03"30.06"30.06"30.09"30.09"30.06"30.06"30.03"30.03"30"30"30"30"30"30"30"30"30"
Wind Speed 6.2 mph6 mph5.4 mph5.8 mph5.8 mph4.8 mph4.9 mph4.9 mph5.6 mph5.4 mph4.6 mph3.7 mph3.4 mph4 mph3.4 mph2.3 mph3.4 mph4.3 mph3.1 mph3.1 mph3.9 mph4.4 mph4.1 mph3.8 mph3.7 mph3.4 mph3.2 mph2.8 mph2.7 mph2.4 mph2.4 mph2.6 mph2.5 mph2.3 mph1.2 mph0.4 mph1.5 mph2 mph2 mph2 mph2.8 mph2.9 mph1.5 mph1.4 mph1.3 mph2.3 mph2.6 mph3.8 mph
Wind
Direction
98°
E
95°
E
90°
E
86°
E
84°
E
90°
E
84°
E
81°
E
89°
E
98°
E
98°
E
88°
E
75°
ENE
60°
ENE
50°
NE
42°
NE
35°
NE
42°
NE
66°
ENE
82°
E
68°
ENE
64°
ENE
63°
ENE
62°
ENE
76°
ENE
85°
E
91°
E
81°
E
70°
ENE
62°
ENE
47°
NE
29°
NNE
41°
NE
52°
NE
62°
ENE
194°
SSW
252°
WSW
277°
W
266°
W
253°
WSW
268°
W
268°
W
253°
WSW
183°
S
172°
S
145°
SE
193°
SSW
197°
SSW

Daily Forecast

Date High Low Precip. Humidity
Today
Sep 20

Rain
82 °F
72 °F
85%
84%
Tuesday
Sep 21

Rain
85 °F
71 °F
99%
67%
Wednesday
Sep 22

Rain
80 °F
65 °F
92%
71%
Thursday
Sep 23

Clear
75 °F
55 °F
0%
34%
Friday
Sep 24

Clear
78 °F
56 °F
0%
43%
Saturday
Sep 25

Clouds
80 °F
57 °F
0%
43%
Sunday
Sep 26

Clear
83 °F
60 °F
0%
35%
Monday
Sep 27

Clear
86 °F
62 °F
0%
37%
Tuesday
Sep 28

Clouds
84 °F
65 °F
0%
42%
Wednesday
Sep 29

Clouds
84 °F
70 °F
0%
42%
Thursday
Sep 30

Clouds
85 °F
67 °F
0%
40%
Friday
Oct 1

Rain
76 °F
69 °F
76%
75%
Saturday
Oct 2

Rain
81 °F
68 °F
99%
67%
Sunday
Oct 3

Rain
78 °F
69 °F
97%
91%
Monday
Oct 4

Rain
84 °F
66 °F
20%
53%
Tuesday
Oct 5

Clear
86 °F
68 °F
0%
46%

Temperature 8-14 Day Outlook



Precipitation 8-14 Day Outlook




Quick Links
Lake Eufaula News
Lake Eufaula Photos
Lake Eufaula Videos




About Us
Contact Us
Site Map
Search Site
Advertise With Us
   
www.LakeEufaula.info
THE LAKE EUFAULA WEBSITE

Copyright 2021, Lakes Online
Privacy    |    Legal